Wind_Speed
37 37 37 37 38 39 39 39 39 40 40 41 41 41 41 41 41 41 41 41 41 42 42 42 43 43 43 44 44 44 45 45 45 45 45 45 45 44 44 44 44 43 43 43 43 43 43 43 43 43 43 43 43 43 44 44 44 44 44 44 44 44 44 43 43 43 43 43 43 43 43 43 43 43 43 43 43 43 43 43 44 44 44 44 44 45
37 37 37 37 38 38 39 40 40 40 41 41 41 41 41 42 41 41 41 42 42 42 42 43 43 44 44 44 45 45 45 45 45 45 45 45 45 45 45 44 44 44 44 44 44 44 44 43 43 43 43 44 44 44 44 44 44 44 44 44 44 44 43 43 43 43 43 43 43 43 43 43 43 43 43 43 43 43 44 44 44 44 44 44 45 45
37 37 37 37 38 38 39 40 40 40 41 42 42 42 42 42 42 42 42 42 42 43 43 43 44 44 45 45 45 45 46 46 46 46 46 46 46 45 45 45 45 45 44 44 44 44 44 44 44 44 44 44 44 44 44 44 44 44 44 44 44 43 43 43 43 43 43 43 43 43 43 43 43 43 43 43 44 44 44 44 44 44 44 45 45 45
36 37 38 38 38 39 39 40 41 41 42 42 42 42 42 42 42 42 42 42 42 43 43 44 44 45 45 45 45 46 46 46 46 46 46 46 46 46 46 46 45 45 45 45 45 45 44 44 44 44 44 44 44 44 43 43 43 43 43 43 43 43 43 43 42 42 42 42 42 43 43 43 43 43 43 43 44 44 44 44 44 45 45 45 45 46
36 37 38 38 38 39 40 40 41 41 42 42 42 42 42 42 42 42 42 42 42 43 43 44 44 45 45 46 46 46 46 46 46 46 46 46 46 46 46 46 46 46 45 45 45 45 45 44 44 44 44 44 43 43 43 43 43 43 43 43 43 42 42 42 42 42 42 42 42 42 42 43 43 43 43 44 44 44 44 44 45 45 45 45 46 46
36 37 38 38 39 39 40 41 41 42 42 42 42 42 42 42 42 42 42 42 42 43 43 44 44 45 45 46 46 46 46 46 46 46 46 46 46 46 46 46 46 46 46 46 46 45 45 45 44 44 44 44 43 43 43 42 42 42 42 42 42 42 41 41 41 41 41 41 41 42 42 42 43 43 43 44 44 44 44 45 45 45 45 46 46 46
37 38 38 39 39 40 40 41 41 41 42 42 42 42 42 42 42 42 42 42 42 43 43 44 45 45 45 46 46 46 46 46 46 46 45 46 46 46 46 46 46 46 46 46 46 45 45 45 45 44 44 43 43 43 42 42 42 41 41 41 41 41 40 40 40 40 40 41 41 41 42 42 42 43 43 44 44 44 45 45 45 46 46 46 47 47
38 38 38 39 39 40 40 41 41 41 41 42 42 42 42 42 42 42 42 42 43 43 43 44 44 45 45 45 46 46 46 46 45 45 45 45 45 45 45 45 45 45 45 45 45 45 45 45 44 44 44 43 43 42 42 41 41 40 40 40 40 39 39 39 39 40 40 40 41 41 41 42 42 43 43 44 44 45 45 45 46 46 46 47 47 48
38 38 39 39 39 39 40 40 41 41 41 41 42 42 41 41 42 42 42 43 43 43 43 43 43 44 44 45 45 45 46 45 45 45 45 45 45 45 45 45 45 45 45 45 45 44 44 44 44 44 43 43 42 42 41 41 40 40 39 39 39 39 39 39 39 39 40 40 40 41 41 42 42 43 43 44 45 45 46 46 46 47 47 47 48 48
38 38 39 39 39 39 39 40 40 41 41 41 42 42 41 41 42 42 42 42 43 43 43 43 43 43 43 44 44 44 45 45 45 45 45 45 45 45 44 44 44 44 44 44 44 44 44 44 44 43 43 42 41 41 40 40 39 39 38 38 38 38 38 38 38 39 39 40 40 41 41 42 42 43 44 44 45 45 46 46 47 47 47 48 48 49
38 38 38 39 39 39 39 39 40 41 41 41 42 42 42 42 42 42 42 42 42 42 43 43 43 43 42 43 43 43 43 43 44 44 45 45 45 44 44 44 44 44 44 44 44 43 43 43 43 42 42 41 41 40 39 39 38 38 38 37 37 37 38 38 38 39 39 40 40 41 41 42 43 43 44 45 45 46 46 47 47 48 48 48 49 49
38 38 38 38 39 39 39 39 40 40 41 41 41 42 42 42 42 42 42 42 42 42 42 43 43 42 42 42 42 42 42 42 42 43 44 44 44 44 44 44 44 44 44 44 43 43 43 42 42 41 41 40 39 39 38 38 38 37 37 37 37 37 38 38 38 39 39 40 41 41 42 42 43 44 44 45 45 46 46 47 47 48 48 48 49 49
38 38 38 38 39 39 39 39 40 40 40 41 41 41 42 43 43 43 43 43 43 43 42 42 41 41 41 41 41 41 41 41 41 42 42 42 42 43 43 43 43 43 43 43 43 42 42 42 41 41 40 39 39 38 38 37 37 37 37 37 37 38 38 38 39 39 40 40 41 41 42 43 43 44 44 45 46 46 47 47 47 48 48 49 49 50
38 38 38 38 39 39 39 39 39 40 40 41 41 42 42 43 43 43 43 43 43 43 42 41 40 39 39 39 40 40 41 41 41 41 41 41 41 41 41 42 42 42 42 42 42 41 41 41 41 40 39 38 38 38 37 37 37 37 37 37 38 38 38 39 39 40 40 41 41 42 42 43 43 44 45 45 46 46 47 47 48 48 48 49 49 50
37 38 38 38 39 39 39 39 39 40 41 41 41 41 42 42 43 43 42 43 42 42 41 40 40 39 38 38 39 39 40 41 41 40 40 40 40 40 40 41 41 41 41 40 40 40 40 40 39 39 38 38 37 37 37 37 37 37 37 38 38 38 39 39 39 40 40 41 41 42 42 43 43 44 45 45 46 46 47 47 48 48 49 49 50 50
37 38 38 38 38 39 39 39 39 40 41 41 41 41 42 42 42 42 42 42 42 41 41 39 38 38 37 37 37 38 39 41 41 40 39 39 38 38 39 40 40 40 39 39 38 38 38 38 38 38 37 37 37 37 37 37 37 37 37 38 38 38 39 39 39 40 40 41 41 42 42 43 43 44 44 45 46 46 47 47 48 49 49 50 50 51
37 37 37 38 38 38 39 39 40 40 41 41 41 42 42 42 42 42 41 41 41 41 40 39 38 36 35 36 36 37 38 39 41 40 39 38 37 37 38 38 39 38 38 37 37 37 37 37 37 36 36 36 36 36 36 37 37 37 37 37 38 38 38 39 39 40 40 41 41 42 43 43 44 44 45 45 46 47 47 48 48 49 49 50 51 51
37 37 37 37 38 38 39 39 40 41 41 41 41 41 41 41 41 41 41 41 40 39 39 38 37 36 35 34 35 35 36 38 39 40 39 37 36 36 36 37 37 37 36 35 35 35 35 35 35 35 35 35 35 35 35 35 36 36 36 36 37 37 38 39 39 40 40 41 42 42 43 43 44 45 45 46 46 47 48 48 49 49 50 51 51 52
37 37 37 37 38 38 39 39 40 41 41 41 41 41 41 41 40 40 40 40 39 38 38 37 36 36 34 34 34 35 35 37 39 39 38 37 35 35 35 35 36 35 34 34 33 34 34 33 33 33 33 33 33 33 33 34 34 34 35 36 36 37 38 39 39 40 41 42 42 43 44 44 45 45 46 47 47 48 48 49 50 50 51 51 52 53
36 37 37 38 38 38 39 39 40 40 40 40 40 40 40 40 39 39 38 38 37 37 36 36 35 35 34 33 33 34 35 37 38 39 38 37 35 34 34 34 34 33 32 32 31 31 31 31 30 30 30 31 31 31 32 32 33 34 35 36 37 38 38 39 40 41 42 43 43 44 45 45 46 46 47 47 48 49 49 50 50 51 51 52 52 53
36 37 38 38 38 39 39 40 40 39 40 40 40 39 39 39 38 37 37 36 35 35 35 34 34 34 33 33 33 34 35 37 38 39 39 37 35 33 33 33 33 32 30 30 29 29 29 28 28 28 29 29 30 31 31 32 33 34 35 36 38 39 40 41 42 42 43 44 44 45 45 46 46 47 48 48 49 49 50 50 50 51 51 52 52 53
37 38 38 38 39 39 39 39 39 39 39 39 39 38 38 37 37 36 35 34 34 34 34 33 33 33 33 33 33 34 35 37 38 39 39 37 34 33 32 32 31 30 29 28 28 28 27 27 27 27 28 29 30 31 32 33 34 35 36 38 39 40 41 42 43 43 44 45 45 46 46 46 47 47 48 48 48 49 49 50 50 50 51 51 52 52
38 39 39 39 39 39 39 39 38 38 38 38 38 37 37 36 35 35 34 33 33 33 33 33 33 32 32 33 33 34 35 36 38 39 39 37 34 32 31 31 30 29 28 27 27 27 27 26 27 27 28 30 31 32 33 34 35 36 37 38 39 40 41 42 43 44 44 45 45 46 46 46 46 47 47 47 48 48 48 49 49 49 50 50 51 51
38 39 39 39 39 38 38 38 37 37 37 37 36 36 36 35 34 34 33 33 32 32 33 32 32 32 32 33 33 34 35 36 38 39 38 37 34 32 30 30 29 28 28 27 27 27 27 27 27 28 29 30 31 32 33 34 35 36 37 38 39 40 41 42 42 43 44 44 45 45 45 45 46 46 46 46 47 47 47 48 48 49 49 50 50 51
38 39 39 38 38 38 38 37 36 36 36 35 35 35 34 34 33 33 32 32 32 32 32 32 32 31 32 32 33 34 35 36 37 38 38 36 33 31 30 30 29 29 28 28 28 28 28 28 28 29 30 31 32 33 34 35 35 36 37 38 39 39 40 41 41 42 42 43 43 44 44 44 44 45 45 45 46 46 47 47 48 48 48 49 49 50
38 38 38 38 38 37 37 36 35 35 34 34 34 34 33 33 32 32 32 32 32 32 33 32 32 32 32 33 33 33 34 35 37 37 37 35 33 31 30 30 30 30 29 29 29 29 29 28 29 29 30 31 32 33 34 34 35 36 37 37 38 39 39 40 40 41 41 42 42 42 43 43 44 44 44 45 45 46 46 47 47 48 48 49 49 50
38 38 38 37 37 36 36 35 34 33 33 33 33 33 32 32 32 31 31 32 32 33 33 33 33 33 33 33 32 32 33 34 36 37 36 35 32 30 30 30 31 31 31 30 30 30 30 30 30 30 30 31 32 33 33 34 35 36 36 37 37 38 39 39 40 40 41 41 41 42 42 43 43 44 44 45 45 45 46 46 47 47 48 48 49 49
38 37 37 36 36 35 34 34 33 33 32 32 32 32 32 32 31 31 31 32 32 33 33 33 33 33 33 32 32 31 32 33 35 36 36 34 32 30 30 31 32 32 33 33 32 31 31 31 31 31 31 31 32 32 33 34 34 35 36 36 37 37 38 38 39 40 40 40 41 41 42 42 43 43 44 44 45 45 46 46 47 47 48 48 49 49
37 36 36 35 35 34 33 33 32 32 31 31 31 31 31 31 31 31 31 32 32 33 33 33 34 33 33 32 31 31 31 32 35 36 35 33 31 30 30 31 32 34 35 35 34 33 32 31 31 31 31 32 32 32 33 33 34 35 35 35 36 36 37 38 38 39 39 40 40 41 41 42 42 43 43 44 44 45 45 46 46 47 47 48 48 48
36 35 35 34 34 33 32 32 31 31 31 31 31 31 31 31 31 32 32 32 33 33 33 33 33 33 33 32 31 30 30 32 34 35 34 32 31 31 31 32 33 35 36 37 37 36 33 32 32 32 33 33 33 33 33 34 34 35 35 35 35 36 36 37 38 38 39 39 40 40 41 41 41 42 42 43 43 44 44 45 45 46 46 47 47 46
34 34 33 33 33 32 32 31 31 31 31 31 31 31 31 31 32 32 32 33 33 33 33 33 33 32 32 32 31 29 29 31 33 35 33 32 31 31 31 32 34 35 37 39 40 39 37 34 33 33 34 34 34 34 34 34 35 35 35 36 36 36 37 37 38 38 39 39 39 40 40 40 41 41 42 42 42 43 43 44 44 45 45 45 45 44
33 33 32 32 32 32 31 31 31 30 30 30 31 31 31 32 32 32 33 33 33 33 33 32 32 32 32 31 30 29 29 30 32 34 33 32 32 32 32 33 34 36 37 39 40 41 41 39 36 35 35 35 35 35 35 35 36 36 36 37 37 37 37 38 38 39 39 39 39 40 40 40 40 40 41 41 41 42 42 42 42 43 43 43 42 42
32 32 32 31 31 31 31 31 31 30 30 30 31 31 32 32 32 33 33 33 33 33 32 32 32 31 31 30 30 29 29 30 32 33 33 33 33 33 34 34 35 36 37 38 40 41 41 41 40 39 38 37 37 37 36 36 36 37 37 38 38 38 38 39 39 39 40 40 40 40 40 40 40 40 40 40 40 41 41 40 40 40 40 40 40 39
31 31 31 31 31 31 31 30 30 30 30 31 31 31 32 32 32 33 33 33 33 32 32 32 31 31 30 29 29 28 28 29 31 33 33 34 34 34 35 35 36 37 38 39 39 40 41 42 42 41 41 39 38 38 38 38 38 38 38 38 39 39 39 40 40 40 40 40 40 40 40 40 40 40 40 40 40 40 39 39 38 38 38 38 38 38
30 30 30 30 30 30 30 30 30 31 31 31 31 31 32 32 32 32 32 32 32 32 32 31 31 30 30 29 28 27 27 29 31 33 34 34 35 36 36 36 37 38 39 40 40 41 42 42 42 42 42 42 40 39 39 38 39 39 39 39 40 40 40 40 41 41 41 41 40 40 40 40 40 40 41 40 40 40 39 38 37 36 36 36 36 37
29 29 30 30 30 30 30 30 31 31 31 31 31 31 32 32 32 32 32 32 32 32 31 31 30 30 29 29 28 27 28 29 30 32 34 35 36 37 37 37 38 39 40 41 41 42 43 43 43 43 43 43 42 41 39 39 39 39 40 40 40 41 41 41 41 41 41 41 41 41 41 41 41 41 41 41 40 40 38 37 36 35 34 34 35 36
29 29 29 30 30 30 30 30 31 31 31 31 32 32 32 32 32 32 32 32 32 31 31 30 30 29 29 28 28 28 28 29 30 31 33 35 36 37 38 38 38 39 40 41 42 43 43 44 43 43 43 43 43 42 41 40 40 40 40 40 41 41 41 41 42 42 42 42 42 42 42 42 42 42 42 41 40 39 38 36 35 34 34 34 35 36
29 29 29 30 30 30 30 30 31 31 31 31 31 32 32 32 32 32 32 31 31 30 30 29 29 28 28 28 28 28 29 29 30 32 33 35 36 37 38 39 39 40 41 42 43 43 44 44 44 44 43 43 42 42 42 41 41 41 41 41 41 42 42 42 42 43 43 43 43 42 42 42 42 42 42 41 40 39 37 36 34 34 34 35 36 37
29 29 29 30 30 30 30 31 31 31 31 31 31 32 32 32 32 32 31 31 30 30 29 28 28 27 28 28 28 29 30 30 31 32 33 35 36 37 38 39 39 40 41 41 42 43 43 44 44 44 44 43 43 42 41 41 41 42 42 42 42 42 43 43 43 43 43 43 43 43 43 42 42 42 42 41 39 38 37 36 35 35 35 37 38 39
28 29 29 30 30 30 30 31 31 31 31 31 32 32 32 31 31 31 30 30 29 29 28 28 27 27 27 27 28 29 30 31 32 32 34 35 36 37 38 39 39 40 40 41 41 42 42 42 43 43 43 43 43 42 42 41 41 42 43 44 44 43 43 43 43 43 43 43 43 43 43 43 42 42 41 40 39 38 37 36 36 36 37 39 41 42
28 29 29 30 30 30 30 31 31 31 31 31 31 31 31 31 30 30 29 29 29 28 28 27 27 27 27 27 28 29 30 31 32 32 33 34 36 37 38 38 39 40 40 41 41 41 41 41 42 42 42 42 42 42 42 42 42 43 44 44 45 45 44 44 43 44 44 43 43 43 43 43 42 41 40 39 38 37 37 37 37 38 39 41 43 45
28 29 29 30 30 30 30 31 31 31 31 31 31 31 30 30 29 29 28 28 28 28 28 27 27 26 26 26 27 28 30 31 31 32 33 34 35 36 37 38 39 40 40 40 40 40 40 40 41 41 41 41 42 42 42 42 42 42 43 44 45 45 45 44 43 43 43 43 43 43 43 42 42 41 40 38 37 37 37 38 39 40 42 44 45 46
28 29 29 30 30 30 30 31 31 31 31 30 30 30 30 29 28 28 27 27 27 27 27 27 26 26 26 26 26 27 29 30 31 32 33 34 35 36 37 38 39 39 40 40 40 40 40 39 39 39 40 40 41 41 42 42 42 42 43 44 45 46 46 44 43 43 43 43 43 42 42 42 41 40 39 38 38 38 38 40 41 43 44 46 47 47
28 29 29 29 30 30 30 30 30 30 30 30 29 29 29 28 28 27 27 26 26 26 26 26 26 26 26 26 26 27 28 29 30 31 32 34 35 36 37 37 38 39 39 39 40 40 39 39 38 38 39 39 40 41 41 42 42 42 42 43 44 45 45 45 44 43 43 42 42 42 41 41 40 40 39 39 39 39 41 42 44 45 46 47 48 47
28 29 29 29 29 29 30 30 30 29 29 29 29 28 28 28 27 27 26 26 26 26 26 26 26 26 26 26 26 27 27 28 29 30 32 33 34 35 36 37 37 38 38 39 39 39 39 39 38 38 38 38 39 39 40 41 42 42 42 43 43 44 44 44 44 44 43 43 42 41 41 40 40 40 40 40 40 41 43 44 46 47 48 48 48 47
28 28 28 29 29 29 29 29 29 29 28 28 28 28 27 27 27 26 26 26 26 26 26 26 26 26 27 27 27 27 27 28 28 29 30 32 33 34 35 36 37 37 37 37 37 38 38 37 37 37 37 37 38 38 39 40 41 42 42 42 43 43 43 43 43 43 43 43 42 41 40 40 41 41 42 43 43 44 45 47 48 49 49 48 47 46
27 27 27 28 28 28 28 28 28 28 28 27 27 27 27 26 26 26 26 26 26 26 26 26 26 27 27 27 27 27 28 28 28 29 30 31 32 33 34 35 35 36 36 36 36 36 36 36 36 36 36 37 37 37 37 38 39 40 42 42 43 43 43 43 43 43 42 42 41 41 41 41 42 43 44 45 46 47 48 48 49 49 49 48 47 46
26 26 27 27 27 27 27 27 27 27 27 26 26 26 26 26 26 26 26 26 26 26 26 26 26 27 27 27 27 28 28 29 29 29 30 31 31 32 33 33 34 34 34 34 34 34 34 34 34 34 35 36 36 37 37 37 38 39 41 42 42 43 43 43 42 42 42 41 41 41 41 42 43 45 47 48 49 49 49 49 49 48 48 48 47 47
25 26 26 26 26 27 27 27 26 26 26 25 25 25 25 25 25 25 25 26 26 26 26 26 26 27 27 27 27 28 28 29 29 30 30 31 32 32 32 33 33 33 33 33 33 33 33 33 32 33 33 34 36 36 37 37 38 39 40 41 42 43 43 43 42 41 41 41 41 41 42 43 44 46 48 50 51 51 51 50 49 48 47 48 48 48
25 25 25 26 26 26 26 26 25 25 25 24 24 24 25 25 25 25 25 26 26 26 26 26 26 26 26 27 27 27 28 29 29 30 30 31 32 32 32 33 33 33 33 32 32 32 32 32 32 32 32 33 35 36 37 37 38 38 39 40 41 42 42 42 42 41 41 41 41 42 43 44 45 47 49 51 52 53 52 51 49 48 47 48 48 48
24 25 25 25 25 25 25 25 24 24 24 24 24 24 24 24 25 25 25 25 26 26 26 26 26 26 26 27 27 27 28 28 29 30 30 31 31 32 32 33 33 33 33 33 32 32 32 33 32 32 31 32 33 35 36 37 38 39 39 40 41 41 42 42 41 41 41 41 42 43 44 45 47 48 50 51 53 54 53 52 51 49 48 48 48 48
Wind_Direction
280 281 283 284 287 288 290 291 292 292 293 293 293 293 293 294 294 295 295 296 296 297 297 297 297 297 297 297 297 297 297 297 297 296 296 296 295 295 294 294 293 292 291 290 289 288 287 286 285 285 284 283 283 282 282 281 281 281 280 280 280 279 279 278 278 278 278 277 277 278 278 278 278 278 278 278 279 279 278 278 278 278 278 278 278 277
279 281 283 285 287 289 290 291 292 292 292 293 293 293 293 294 294 295 295 295 296 296 296 297 297 297 298 298 298 297 297 297 297 296 296 296 295 295 294 293 293 292 291 290 289 288 287 287 286 285 284 284 283 283 282 282 281 281 280 280 280 279 278 278 278 277 277 277 277 277 277 278 278 278 278 278 278 278 278 278 278 278 278 278 278 277
279 282 284 286 288 289 290 291 291 292 292 292 292 293 293 293 294 294 295 295 295 296 296 297 297 297 298 298 298 297 297 297 297 297 296 296 295 295 294 293 293 292 291 290 289 288 287 287 286 285 285 284 284 283 283 282 282 281 280 280 279 279 278 278 277 277 277 277 277 277 277 278 278 278 278 278 278 278 278 278 278 278 278 278 278 277
280 282 284 286 288 289 289 290 291 291 291 291 292 292 292 293 293 294 294 295 295 296 296 297 297 297 298 298 298 297 297 297 297 297 296 296 295 294 294 293 292 292 291 290 289 288 287 287 286 285 285 284 284 284 283 282 282 281 280 279 279 278 278 277 277 277 277 277 277 277 278 278 278 278 278 278 278 278 278 279 279 278 278 278 278 277
281 283 285 286 288 288 289 290 290 291 291 291 292 292 292 293 293 293 294 294 295 296 296 297 297 297 297 297 297 297 297 297 296 296 296 295 295 294 293 293 292 291 291 290 289 288 287 287 286 286 285 285 284 284 283 282 282 281 280 279 279 278 278 277 277 277 277 277 277 277 278 278 278 278 278 278 279 279 279 279 279 279 278 278 278 278
282 283 285 287 288 289 289 289 290 290 291 292 292 292 293 293 293 294 294 294 295 295 296 297 297 297 297 297 297 296 296 296 296 295 295 294 294 293 293 293 292 291 291 290 289 289 288 288 287 286 286 285 285 284 283 282 281 281 280 279 279 278 278 277 277 277 277 277 277 278 278 278 278 278 279 279 279 279 279 279 279 279 279 278 278 278
282 283 285 286 287 288 289 289 290 290 291 292 292 293 293 293 293 294 294 294 295 295 296 296 297 297 296 296 296 296 296 295 295 295 294 294 293 293 292 292 291 291 290 290 289 289 288 288 287 287 286 286 285 284 283 283 282 281 280 280 279 279 278 278 278 278 278 278 278 278 278 278 279 279 279 279 279 279 279 279 279 279 279 279 278 278
283 284 285 286 287 288 288 289 290 290 291 292 292 293 293 293 293 294 294 294 295 295 295 296 296 296 296 296 296 295 295 295 295 294 294 293 292 292 291 291 290 290 289 289 289 288 288 288 287 287 287 286 286 285 284 283 282 282 281 280 280 279 279 279 279 278 278 278 278 279 279 279 279 279 279 280 280 280 280 280 279 279 279 279 279 279
284 285 285 286 287 288 289 289 290 290 291 292 292 293 293 293 293 293 293 294 294 294 294 294 295 295 295 295 295 295 295 294 294 293 293 292 292 291 291 290 290 289 289 288 288 288 288 287 287 287 287 286 286 285 285 284 283 283 282 281 281 280 280 280 279 279 279 279 280 280 280 280 280 280 280 280 280 280 280 280 280 280 280 280 279 279
283 284 286 286 287 288 289 290 291 291 292 292 292 293 293 293 293 293 293 293 293 293 294 294 294 294 294 294 294 294 294 294 293 293 292 292 291 291 290 290 289 289 289 288 288 288 288 287 287 287 287 287 286 286 285 285 284 284 283 283 282 282 281 281 281 281 281 281 281 281 281 281 281 281 281 281 281 281 281 281 281 281 281 280 280 280
283 284 285 287 288 288 289 290 291 292 292 293 293 293 293 292 292 292 292 292 292 292 293 293 293 293 293 293 293 293 293 293 293 292 292 292 291 291 291 290 290 289 289 288 288 288 288 287 287 287 287 287 287 287 286 286 286 285 285 284 284 283 283 283 283 283 282 283 282 282 282 282 282 282 282 282 282 282 282 282 282 282 281 281 281 281
283 285 286 287 288 289 290 291 291 292 293 293 293 293 293 292 292 292 291 291 291 291 291 292 292 292 292 292 292 292 292 292 291 291 291 291 291 291 291 291 290 290 290 289 289 289 289 289 289 289 289 289 289 288 288 288 288 287 287 286 286 286 285 285 285 285 284 284 284 284 283 283 283 283 283 283 283 283 282 283 282 282 282 282 282 282
284 285 286 287 288 289 290 291 292 292 293 293 292 292 292 291 291 291 291 291 291 291 291 291 292 292 292 292 292 292 292 291 290 290 290 290 290 290 290 291 290 290 290 291 291 291 291 291 291 291 291 291 290 290 290 290 289 289 289 288 288 288 287 287 287 286 286 285 285 285 284 284 284 284 284 284 283 283 283 283 283 283 283 283 283 283
284 286 287 287 288 288 290 291 291 292 292 292 291 291 291 291 291 291 291 291 291 291 292 292 292 292 292 292 292 292 292 291 290 290 290 289 289 290 290 290 290 290 290 291 291 292 292 292 292 292 292 292 292 292 291 291 291 290 290 290 290 289 289 288 288 287 287 286 286 285 285 285 285 285 284 284 284 284 284 284 284 284 284 284 284 284
285 286 286 287 287 288 289 290 291 291 291 291 291 290 290 290 290 290 290 291 291 291 292 292 292 292 292 292 292 292 292 291 291 290 290 290 290 290 290 290 290 290 290 291 291 292 292 292 293 293 293 293 293 293 292 292 292 292 291 291 291 290 289 289 288 288 287 287 286 286 286 286 285 285 285 285 285 285 285 285 285 285 285 285 286 286
285 285 286 287 287 288 289 290 291 290 290 290 290 289 289 289 289 290 290 290 290 291 291 291 292 292 292 292 292 292 292 292 291 290 290 290 290 290 290 290 290 290 291 291 292 292 292 292 293 293 294 294 294 293 293 293 293 292 292 292 291 290 290 289 289 288 288 287 287 287 287 287 286 286 286 286 286 286 286 286 286 287 287 287 287 287
285 285 286 286 287 288 289 290 290 290 290 289 289 289 289 289 289 289 290 290 290 291 291 291 292 291 291 291 291 291 291 291 291 291 290 290 290 290 290 290 290 290 291 292 292 292 292 292 293 293 294 294 294 293 293 293 293 293 293 292 292 291 290 290 289 289 288 288 288 288 288 288 288 288 288 288 288 287 287 287 288 288 288 288 288 288
284 285 285 286 286 287 289 289 289 289 289 288 288 288 289 289 289 290 290 290 291 291 292 292 292 292 292 291 291 290 290 290 290 290 290 290 290 290 290 290 290 291 292 292 292 292 292 292 293 293 294 294 294 294 294 294 293 293 293 292 292 291 291 290 290 290 290 289 289 289 289 289 289 289 289 288 288 288 288 289 289 289 289 289 289 289
284 284 285 285 286 287 288 288 288 288 287 287 287 288 288 288 289 289 290 290 291 291 292 292 292 292 292 292 292 291 291 290 290 290 290 290 290 290 290 290 291 291 292 293 292 292 292 293 293 294 294 294 293 294 294 294 293 293 293 292 292 291 291 291 291 290 290 290 290 290 290 290 290 289 289 289 289 289 289 289 289 289 289 289 289 289
283 284 284 285 286 287 287 286 286 286 286 286 287 287 287 288 288 289 289 290 291 291 291 292 292 292 293 293 292 292 292 291 291 291 291 291 291 291 291 291 291 292 292 292 292 292 292 293 293 294 294 294 294 294 294 294 294 293 293 293 292 292 292 291 291 291 291 291 291 291 290 290 290 290 290 290 290 290 290 290 289 289 289 289 289 289
283 284 284 285 286 286 285 285 285 285 285 286 286 287 287 287 288 288 289 289 290 290 291 291 291 292 293 293 293 293 292 292 291 291 291 292 292 293 293 292 292 292 292 292 292 292 292 293 294 294 294 294 295 295 295 295 295 294 294 294 293 293 292 292 292 291 291 291 291 291 290 290 290 290 290 290 290 290 290 290 290 289 289 289 289 289
283 283 284 284 284 284 284 284 284 284 285 285 286 286 286 287 287 288 288 288 289 289 289 290 291 292 293 294 294 293 293 293 292 292 292 292 293 293 293 293 293 293 293 292 292 292 293 294 295 295 296 296 296 296 296 296 296 295 294 294 293 293 292 292 292 291 291 291 291 291 291 291 290 290 290 290 290 290 290 290 290 289 289 289 289 289
282 282 283 283 283 283 283 283 283 283 284 285 285 286 286 286 287 287 287 288 288 288 289 290 291 292 294 294 294 294 293 293 292 292 292 292 293 294 294 293 293 293 294 293 293 293 294 295 296 297 297 297 297 297 297 296 295 295 294 293 293 292 292 292 292 291 291 291 291 291 291 291 291 290 290 290 290 290 290 290 290 290 290 289 289 289
281 281 281 282 282 282 282 282 282 283 283 284 284 285 286 286 286 287 287 287 288 288 289 290 291 292 294 294 294 293 293 292 291 291 291 292 294 295 295 294 294 294 294 294 295 295 295 297 297 298 298 298 298 297 297 296 295 294 294 293 292 292 292 291 291 291 291 291 291 291 291 291 291 291 291 291 291 291 290 290 290 290 290 290 290 290
280 280 281 281 281 281 282 282 282 282 283 283 284 284 285 285 286 286 287 287 287 288 289 290 291 293 293 293 293 292 292 291 290 290 291 292 294 295 296 295 295 295 295 295 295 296 297 298 299 299 299 299 298 297 297 296 295 294 294 293 292 292 292 291 291 291 291 291 291 291 292 292 292 292 292 292 292 292 292 292 292 292 292 291 291 291
280 280 281 281 281 281 282 282 282 282 282 282 283 283 283 284 285 285 286 286 287 288 289 291 292 292 292 292 292 292 291 291 290 290 291 292 294 296 296 297 296 296 296 296 297 298 299 300 301 301 300 300 299 298 297 297 296 295 294 294 293 293 293 292 292 292 293 293 293 294 294 294 294 294 294 294 294 294 294 294 294 293 293 292 292 291
280 281 281 281 281 281 281 281 281 281 282 282 282 282 283 283 284 285 285 286 287 289 290 292 292 292 292 292 293 292 292 291 290 290 291 293 295 297 298 298 298 298 298 298 299 300 302 303 303 303 302 301 300 299 299 298 297 297 296 296 296 295 295 295 295 295 296 296 296 296 296 296 296 296 296 296 296 296 295 295 295 294 293 293 293 292
281 281 281 281 281 281 281 281 281 281 281 281 281 282 283 283 284 285 286 288 289 290 292 293 293 293 293 294 294 294 293 292 291 291 292 294 297 299 300 300 300 301 301 301 302 303 304 305 305 304 303 302 302 301 301 300 300 299 299 299 299 299 299 298 298 298 298 298 298 298 298 298 298 297 297 297 297 297 296 296 295 295 294 294 293 293
280 280 280 280 280 280 279 279 279 280 280 281 281 282 283 284 285 287 288 289 290 291 293 294 294 295 295 295 295 295 294 292 291 291 293 296 299 301 302 303 303 304 304 304 304 304 305 307 307 307 306 305 305 305 304 304 303 303 302 302 301 301 300 300 300 299 299 299 298 298 298 298 298 298 298 298 298 297 297 297 296 295 295 294 294 294
279 279 279 279 278 278 278 278 279 279 280 281 282 283 284 285 286 288 289 290 291 292 293 294 295 296 296 296 296 295 294 293 292 293 295 298 301 302 304 305 306 307 307 307 307 306 306 308 309 309 309 309 309 309 308 307 306 305 304 303 302 301 301 300 299 299 299 298 298 298 298 299 299 299 299 299 298 298 298 297 296 296 295 295 294 294
278 278 277 277 277 277 278 278 279 280 281 282 282 283 285 286 287 288 289 291 292 293 294 295 296 297 297 297 297 296 295 293 294 295 298 300 302 304 306 307 308 308 309 309 310 310 309 310 311 312 312 312 312 312 311 310 308 307 306 304 303 302 301 300 300 299 299 299 299 300 300 300 300 300 300 300 299 299 298 298 297 296 295 295 295 294
277 276 276 276 277 277 278 279 280 280 281 282 283 284 285 286 288 289 290 292 293 294 295 296 297 297 297 297 298 298 297 295 296 297 300 302 304 305 307 308 309 309 310 311 312 312 313 313 314 314 315 315 315 314 313 312 310 309 308 306 305 304 303 302 302 302 301 302 302 302 302 302 302 302 301 301 300 300 299 298 297 296 295 295 294 294
276 275 275 276 276 277 278 279 280 281 282 283 284 285 286 287 288 290 291 293 294 295 296 297 297 297 297 298 298 299 299 298 298 300 302 303 305 306 308 309 310 310 311 311 312 313 315 316 316 316 316 317 316 316 315 313 312 311 310 309 308 307 306 305 305 305 305 305 305 305 305 304 304 303 303 302 301 300 299 298 297 296 295 294 294 294
275 275 275 276 276 277 278 279 280 281 282 283 284 286 287 288 289 291 292 294 295 296 297 297 297 297 298 298 299 300 300 300 300 301 303 304 306 307 308 310 311 311 312 313 314 315 315 316 317 318 318 317 317 317 316 315 314 313 312 311 310 309 308 308 308 308 308 308 308 308 307 307 306 305 304 303 302 301 300 298 297 295 294 294 294 294
274 274 275 275 276 277 279 280 281 282 283 284 285 286 287 289 290 291 293 294 295 295 296 297 297 298 298 299 300 301 301 301 301 303 304 305 306 308 309 310 312 313 313 314 315 316 316 317 318 318 318 317 317 317 317 316 315 314 313 312 311 311 311 310 310 310 310 310 310 310 310 309 308 307 306 305 304 302 301 299 297 295 294 294 294 295
273 274 275 275 276 278 279 280 281 282 283 284 285 286 288 289 290 291 292 293 294 295 296 297 298 299 300 301 302 302 302 302 302 304 305 306 307 308 310 311 313 314 315 316 316 317 317 317 317 318 317 317 317 317 317 317 316 315 314 313 312 312 312 312 312 313 313 313 313 312 311 311 309 308 307 306 305 303 301 299 297 296 295 294 294 295
273 274 275 276 277 278 279 280 281 282 283 285 286 287 288 289 290 291 292 292 293 294 296 297 299 300 302 303 303 303 303 303 304 305 305 306 307 309 310 312 314 315 316 316 317 317 317 317 317 317 317 317 317 318 317 317 316 315 315 314 313 314 314 314 314 315 315 315 315 314 313 312 310 309 308 307 305 303 301 299 298 296 295 295 295 296
273 274 275 276 277 278 279 280 281 282 283 284 286 287 288 289 290 290 291 292 293 295 296 298 300 302 303 304 305 305 305 305 305 306 306 307 308 309 311 313 314 315 316 316 316 316 317 317 317 317 317 317 317 317 318 318 317 316 315 315 315 315 316 316 317 317 317 316 316 315 313 312 311 309 308 307 305 304 302 300 298 297 296 296 296 298
274 275 275 276 277 278 279 280 281 282 283 284 285 286 287 288 289 290 291 292 294 295 297 299 301 303 304 305 306 306 306 306 306 307 307 308 309 310 312 313 314 314 315 315 315 316 316 316 317 317 317 317 317 317 318 318 318 318 317 316 316 317 317 318 318 318 318 317 316 315 313 312 311 310 309 307 306 304 303 301 300 299 298 299 299 300
274 275 276 276 277 278 279 280 281 282 283 284 285 286 287 288 289 290 291 293 295 297 298 300 302 304 305 306 306 306 306 306 306 307 307 308 309 310 311 312 312 313 313 314 314 315 316 316 317 317 317 317 318 318 319 319 320 319 318 318 318 318 318 319 319 319 318 317 316 315 314 312 311 310 309 308 307 306 304 303 302 301 302 302 303 304
275 275 276 277 278 279 280 280 281 282 283 284 284 285 286 288 289 291 292 294 296 298 299 301 303 304 305 306 306 305 305 305 306 306 307 308 308 309 310 310 311 312 313 313 314 315 316 316 317 317 318 318 318 319 320 321 321 320 320 319 319 319 319 319 319 319 318 317 316 315 314 313 312 311 310 309 308 307 306 305 305 305 305 305 306 307
276 276 277 277 278 279 280 281 281 282 283 284 285 286 287 288 289 291 293 295 296 298 299 301 302 303 304 304 304 304 304 304 305 306 306 307 307 308 309 310 311 312 313 314 315 315 316 317 317 318 318 319 319 320 320 321 321 321 320 319 319 318 318 319 319 318 317 317 316 315 315 314 313 312 311 310 309 309 308 307 307 308 308 309 309 310
277 277 277 278 279 279 280 281 281 282 283 284 285 286 287 289 290 291 293 294 296 297 299 300 301 302 303 303 302 302 302 303 304 305 305 306 307 308 309 310 311 312 313 314 315 316 317 317 318 319 319 320 320 321 321 321 321 321 320 319 318 317 317 318 318 318 317 317 317 316 316 315 314 313 312 312 311 311 310 310 310 310 311 311 311 312
278 278 278 279 279 280 280 281 282 283 284 285 286 287 288 289 290 292 293 294 296 297 298 299 301 302 302 302 302 301 301 302 303 304 305 306 307 308 310 311 312 313 314 315 316 317 317 318 319 319 320 320 321 321 321 321 321 320 319 318 317 317 317 318 318 318 318 318 318 318 317 316 315 315 314 314 313 313 312 312 312 312 312 312 313 313
278 278 278 279 279 280 281 282 283 284 285 286 286 287 288 290 291 292 294 295 296 297 299 300 301 301 301 302 302 302 302 303 304 305 306 307 308 309 310 312 313 314 315 316 316 317 318 319 319 320 320 321 321 321 321 321 320 319 318 317 316 316 317 318 319 319 319 319 319 319 319 318 317 316 316 315 315 314 314 314 314 313 313 313 314 314
278 278 279 279 280 281 282 282 283 284 285 286 287 288 289 291 292 293 295 296 297 298 299 300 301 301 302 302 302 303 303 304 304 305 306 307 309 310 311 312 313 314 315 315 316 317 318 319 320 320 321 321 321 321 321 320 319 318 317 317 316 317 317 319 320 320 321 321 321 321 321 320 319 318 318 317 316 316 316 315 315 314 314 315 315 315
278 279 280 280 281 282 282 283 284 285 286 287 288 289 290 292 293 295 296 297 298 299 300 301 301 302 303 303 304 304 305 305 306 306 307 308 309 310 311 312 313 314 314 315 316 317 317 318 319 320 321 321 320 320 320 320 319 318 317 317 317 318 319 320 321 322 322 323 323 323 323 322 321 320 319 318 317 317 316 316 315 315 316 316 317 317
280 281 281 282 282 283 283 284 285 285 286 287 289 290 292 293 294 295 297 298 299 299 300 301 302 302 303 304 305 306 307 307 308 308 309 309 310 310 311 312 313 313 314 315 316 316 317 317 318 319 320 320 321 321 321 320 320 319 319 319 319 320 321 322 323 323 324 324 324 325 324 324 322 321 320 318 318 317 317 316 316 317 318 319 319 319
282 282 282 282 283 283 284 285 286 286 287 288 290 291 292 293 295 296 297 298 299 299 300 301 302 303 304 305 306 307 308 309 309 310 310 311 311 311 312 313 313 314 314 315 315 316 316 317 318 320 321 322 322 322 323 323 322 321 320 321 321 321 322 323 324 325 325 326 326 326 325 324 323 322 320 319 318 318 318 318 318 319 320 321 321 320
282 282 283 283 283 284 285 286 287 288 289 290 291 292 293 294 295 296 297 297 298 299 300 302 303 304 305 306 307 308 309 310 310 311 312 312 313 313 314 314 315 315 315 316 316 316 316 317 319 321 324 325 325 325 326 325 324 323 322 322 322 323 323 324 325 326 326 327 327 327 326 325 323 322 321 320 320 319 319 320 320 321 323 323 322 321
283 283 284 284 285 285 286 287 288 289 290 291 291 292 293 294 295 295 297 297 298 300 301 302 303 305 306 307 308 309 310 311 312 312 313 314 314 315 315 316 317 317 317 317 317 318 318 319 320 323 326 328 328 329 329 328 327 325 324 323 324 324 325 326 326 327 327 328 327 327 326 325 324 324 323 323 322 322 322 322 323 324 325 324 323 321
Height
3070 3069 3069 3069 3068 3067 3066 3066 3066 3065 3063 3062 3062 3061 3060 3059 3058 3058 3057 3056 3056 3055 3054 3053 3053 3052 3051 3050 3049 3048 3046 3046 3045 3043 3042 3041 3041 3040 3038 3037 3036 3035 3034 3033 3032 3031 3031 3030 3029 3028 3027 3026 3026 3025 3024 3023 3022 3022 3021 3020 3020 3019 3018 3017 3016 3016 3015 3014 3014 3013 3012 3011 3011 3010 3010 3009 3009 3009 3008 3008 3007 3007 3007 3006 3006 3006
3067 3067 3066 3066 3066 3065 3063 3063 3062 3062 3061 3060 3059 3058 3057 3056 3056 3055 3054 3054 3053 3052 3051 3050 3049 3048 3047 3046 3045 3044 3043 3042 3041 3040 3039 3038 3037 3036 3035 3034 3033 3032 3031 3030 3029 3028 3027 3026 3025 3024 3024 3023 3022 3021 3021 3020 3019 3018 3017 3016 3016 3015 3014 3014 3013 3012 3011 3011 3010 3009 3008 3008 3007 3006 3006 3006 3005 3005 3004 3004 3004 3003 3003 3003 3002 3002
3065 3064 3064 3064 3063 3062 3061 3060 3060 3059 3058 3057 3056 3056 3055 3054 3053 3052 3051 3051 3050 3049 3048 3047 3046 3045 3044 3043 3042 3041 3040 3039 3037 3036 3036 3035 3033 3032 3031 3030 3029 3028 3027 3026 3025 3024 3023 3022 3021 3021 3020 3019 3018 3017 3017 3016 3015 3015 3014 3013 3012 3011 3011 3010 3009 3009 3008 3007 3006 3006 3005 3004 3003 3003 3002 3002 3001 3001 3001 3000 3000 3000 2999 2999 2999 2998
3063 3062 3061 3061 3061 3060 3059 3058 3057 3056 3056 3055 3053 3053 3052 3051 3051 3050 3049 3048 3047 3046 3045 3044 3043 3042 3041 3040 3039 3038 3036 3035 3034 3033 3032 3031 3030 3029 3028 3026 3026 3025 3024 3023 3022 3021 3020 3019 3018 3017 3016 3016 3015 3014 3013 3012 3012 3011 3010 3009 3009 3008 3007 3006 3006 3005 3004 3003 3003 3002 3001 3001 3000 2999 2999 2998 2997 2997 2997 2996 2996 2996 2995 2995 2995 2994
3061 3060 3059 3058 3058 3057 3056 3055 3054 3053 3052 3052 3051 3050 3049 3049 3048 3047 3046 3045 3044 3043 3042 3041 3040 3039 3038 3036 3035 3034 3033 3032 3031 3030 3029 3028 3026 3025 3024 3023 3022 3021 3020 3019 3018 3017 3016 3015 3015 3014 3013 3012 3011 3011 3010 3009 3008 3007 3006 3006 3005 3004 3004 3003 3002 3001 3001 3000 2999 2998 2997 2997 2996 2996 2995 2994 2994 2993 2993 2992 2992 2991 2991 2991 2990 2990
3058 3057 3056 3056 3055 3054 3053 3052 3051 3051 3050 3049 3048 3047 3046 3046 3045 3044 3043 3042 3041 3040 3039 3038 3037 3036 3035 3033 3032 3031 3030 3029 3028 3027 3026 3024 3023 3022 3021 3020 3018 3017 3016 3015 3014 3013 3012 3012 3011 3010 3009 3008 3008 3007 3006 3006 3005 3004 3003 3002 3002 3001 3000 3000 2999 2998 2997 2996 2996 2995 2994 2993 2992 2991 2991 2990 2990 2989 2989 2988 2988 2987 2987 2986 2986 2986
3056 3055 3054 3053 3052 3051 3051 3050 3049 3048 3047 3046 3045 3045 3044 3043 3042 3041 3040 3039 3038 3037 3036 3035 3034 3033 3031 3030 3029 3028 3027 3026 3025 3024 3022 3021 3020 3019 3018 3016 3015 3014 3013 3012 3011 3010 3009 3008 3007 3006 3006 3005 3004 3003 3003 3002 3001 3001 3000 2999 2998 2997 2997 2996 2995 2994 2993 2992 2992 2991 2990 2989 2989 2988 2987 2986 2986 2985 2985 2984 2983 2983 2982 2982 2982 2981
3053 3052 3052 3051 3050 3049 3048 3047 3046 3046 3045 3044 3042 3042 3041 3040 3039 3038 3037 3036 3036 3035 3034 3032 3031 3030 3029 3027 3026 3025 3024 3023 3022 3021 3019 3018 3017 3016 3015 3013 3012 3011 3010 3009 3008 3006 3006 3005 3004 3003 3002 3001 3001 3000 2999 2998 2998 2997 2996 2996 2995 2994 2993 2992 2991 2991 2990 2989 2988 2987 2986 2986 2985 2984 2983 2982 2982 2981 2980 2980 2979 2979 2978 2978 2977 2977
3050 3049 3049 3048 3048 3047 3045 3044 3043 3043 3042 3041 3040 3039 3039 3038 3037 3036 3035 3034 3033 3032 3031 3030 3029 3027 3026 3025 3023 3022 3021 3020 3018 3017 3016 3015 3013 3012 3011 3010 3009 3008 3007 3006 3004 3003 3002 3001 3000 2999 2999 2998 2997 2996 2996 2995 2994 2993 2993 2992 2991 2990 2989 2989 2988 2987 2986 2985 2984 2983 2982 2981 2981 2980 2979 2978 2977 2977 2976 2976 2975 2974 2974 2973 2973 2972
3047 3047 3046 3045 3045 3044 3043 3041 3040 3040 3040 3038 3037 3036 3036 3035 3034 3033 3032 3031 3030 3029 3028 3027 3026 3025 3023 3022 3021 3020 3018 3016 3015 3014 3013 3011 3010 3009 3008 3007 3006 3005 3004 3002 3001 3000 2999 2998 2997 2996 2996 2995 2994 2993 2992 2991 2991 2990 2989 2988 2987 2986 2986 2985 2984 2983 2982 2981 2980 2979 2979 2978 2977 2976 2975 2974 2973 2972 2972 2971 2970 2970 2969 2969 2968 2968
3045 3044 3044 3042 3041 3041 3041 3039 3037 3036 3036 3036 3034 3033 3032 3032 3031 3031 3029 3028 3028 3027 3026 3024 3023 3022 3021 3019 3018 3017 3016 3014 3012 3011 3010 3008 3007 3006 3005 3004 3002 3001 3000 2999 2998 2997 2996 2995 2994 2993 2992 2991 2991 2990 2989 2988 2987 2986 2986 2985 2984 2983 2982 2981 2980 2979 2978 2977 2976 2976 2975 2974 2973 2972 2971 2970 2969 2968 2967 2966 2966 2965 2965 2964 2964 2963
3042 3041 3041 3040 3039 3038 3037 3036 3035 3034 3033 3032 3031 3030 3029 3028 3028 3027 3026 3025 3025 3024 3023 3021 3020 3019 3018 3016 3015 3014 3013 3012 3010 3008 3006 3005 3004 3003 3001 3000 2999 2998 2997 2996 2995 2994 2993 2992 2991 2990 2989 2988 2987 2986 2986 2984 2984 2983 2982 2981 2980 2979 2978 2977 2976 2976 2975 2973 2972 2971 2971 2969 2968 2967 2966 2966 2965 2964 2963 2962 2961 2961 2960 2960 2959 2958
3039 3039 3038 3037 3036 3035 3034 3033 3032 3031 3030 3030 3029 3027 3026 3025 3025 3024 3023 3022 3021 3021 3020 3019 3017 3016 3015 3014 3012 3011 3010 3009 3007 3006 3004 3003 3001 3000 2999 2997 2996 2995 2993 2992 2991 2990 2989 2988 2987 2986 2986 2985 2984 2983 2982 2981 2980 2979 2978 2977 2976 2976 2975 2974 2973 2971 2971 2969 2968 2967 2966 2965 2964 2963 2962 2961 2961 2960 2959 2958 2957 2956 2956 2955 2954 2954
3036 3036 3035 3034 3033 3032 3031 3030 3029 3028 3027 3026 3026 3025 3023 3022 3022 3021 3020 3019 3018 3017 3016 3016 3014 3013 3012 3011 3009 3008 3007 3006 3004 3003 3002 3000 2999 2997 2996 2995 2993 2992 2991 2990 2988 2987 2986 2985 2984 2983 2982 2981 2980 2979 2978 2977 2976 2976 2975 2974 2973 2972 2971 2970 2969 2968 2966 2966 2964 2963 2962 2961 2960 2959 2958 2957 2956 2956 2955 2954 2953 2952 2951 2951 2950 2949
3033 3033 3032 3031 3030 3029 3028 3027 3026 3025 3024 3023 3023 3022 3021 3020 3019 3018 3017 3016 3015 3014 3013 3012 3011 3010 3009 3007 3006 3005 3003 3002 3001 3000 2999 2998 2996 2995 2994 2992 2990 2989 2988 2987 2986 2985 2984 2982 2981 2980 2979 2978 2977 2976 2975 2974 2973 2972 2971 2970 2969 2968 2967 2966 2965 2964 2962 2961 2960 2959 2958 2957 2956 2955 2954 2953 2952 2951 2951 2950 2949 2948 2947 2946 2945 2944
3030 3030 3029 3028 3027 3026 3024 3024 3023 3022 3021 3020 3020 3019 3018 3016 3016 3015 3014 3013 3012 3011 3010 3009 3008 3007 3006 3004 3003 3002 3000 2998 2997 2997 2996 2996 2994 2992 2991 2989 2988 2987 2986 2985 2984 2982 2981 2980 2978 2977 2976 2975 2974 2973 2972 2971 2970 2969 2968 2966 2966 2964 2963 2962 2961 2960 2958 2957 2956 2955 2954 2953 2952 2951 2950 2949 2948 2947 2946 2945 2944 2943 2942 2941 2940 2939
3027 3027 3026 3025 3023 3022 3021 3020 3020 3019 3018 3017 3016 3016 3015 3014 3013 3012 3011 3010 3009 3008 3007 3006 3006 3005 3004 3002 3001 2999 2998 2996 2994 2993 2993 2993 2991 2990 2988 2986 2985 2984 2984 2983 2982 2980 2979 2977 2976 2975 2974 2973 2971 2970 2969 2968 2966 2966 2964 2963 2962 2961 2960 2958 2957 2956 2955 2953 2952 2951 2950 2949 2948 2947 2946 2945 2944 2943 2942 2941 2940 2939 2937 2936 2935 2934
3024 3024 3023 3021 3020 3019 3018 3017 3016 3016 3015 3014 3013 3012 3012 3011 3010 3009 3008 3007 3006 3005 3004 3003 3002 3001 3001 3000 2998 2996 2995 2994 2991 2990 2990 2990 2989 2988 2986 2984 2983 2982 2981 2981 2979 2978 2976 2975 2974 2972 2971 2970 2969 2967 2966 2965 2964 2963 2961 2960 2959 2957 2956 2955 2953 2952 2951 2950 2949 2947 2946 2946 2944 2943 2942 2941 2940 2939 2938 2936 2935 2934 2933 2932 2931 2929
3021 3021 3020 3018 3017 3016 3015 3014 3014 3013 3012 3011 3011 3010 3009 3008 3007 3006 3005 3004 3003 3002 3001 3000 2999 2998 2998 2997 2995 2993 2992 2991 2989 2987 2987 2987 2987 2986 2984 2982 2981 2980 2979 2978 2977 2975 2974 2972 2971 2970 2969 2968 2966 2965 2964 2963 2961 2960 2959 2957 2956 2954 2953 2951 2950 2949 2947 2946 2945 2944 2943 2942 2941 2939 2938 2937 2936 2935 2933 2932 2931 2930 2928 2927 2926 2925
3018 3017 3016 3015 3014 3013 3012 3011 3011 3011 3010 3008 3008 3007 3006 3005 3005 3004 3002 3001 3000 2999 2998 2997 2996 2995 2995 2994 2992 2991 2989 2987 2986 2984 2984 2984 2983 2983 2981 2980 2978 2977 2977 2976 2975 2973 2971 2971 2969 2968 2967 2966 2964 2963 2961 2960 2959 2957 2956 2954 2952 2951 2949 2948 2946 2945 2944 2943 2941 2940 2939 2938 2937 2936 2934 2933 2932 2931 2929 2928 2927 2925 2924 2923 2921 2920
3015 3014 3013 3012 3011 3010 3009 3009 3008 3008 3007 3006 3005 3004 3003 3003 3002 3001 3000 2999 2998 2997 2996 2995 2994 2993 2992 2991 2990 2988 2986 2985 2982 2981 2980 2981 2981 2980 2978 2977 2976 2975 2975 2974 2972 2971 2969 2968 2967 2966 2965 2963 2962 2961 2959 2958 2956 2955 2953 2951 2949 2948 2946 2945 2943 2942 2941 2939 2938 2937 2936 2934 2933 2932 2931 2929 2928 2926 2925 2924 2922 2921 2920 2918 2917 2916
3011 3010 3009 3009 3009 3008 3007 3006 3006 3005 3004 3003 3002 3001 3001 3000 3000 2998 2997 2997 2996 2995 2993 2992 2991 2991 2990 2988 2987 2985 2983 2981 2980 2978 2977 2977 2978 2977 2976 2974 2973 2972 2972 2971 2970 2968 2967 2966 2965 2964 2963 2961 2960 2958 2957 2955 2954 2952 2950 2948 2946 2945 2943 2941 2940 2939 2937 2936 2935 2933 2932 2931 2929 2928 2927 2925 2924 2922 2921 2920 2918 2917 2916 2914 2913 2911
3008 3007 3006 3006 3006 3005 3004 3004 3003 3002 3001 3001 3000 2999 2998 2997 2997 2996 2995 2994 2993 2992 2991 2990 2989 2988 2987 2986 2985 2982 2981 2979 2977 2975 2974 2974 2975 2975 2974 2972 2971 2970 2969 2968 2967 2966 2965 2964 2963 2962 2961 2959 2958 2956 2954 2953 2951 2949 2947 2946 2944 2942 2940 2939 2937 2935 2934 2932 2931 2930 2929 2927 2926 2925 2923 2921 2920 2919 2917 2916 2914 2913 2911 2910 2909 2907
3006 3005 3004 3003 3003 3002 3001 3001 3000 3000 2999 2998 2997 2996 2995 2995 2994 2993 2992 2991 2991 2990 2989 2988 2987 2986 2985 2984 2982 2980 2978 2976 2974 2972 2971 2971 2971 2971 2971 2969 2968 2967 2966 2966 2964 2963 2963 2962 2961 2960 2958 2957 2955 2954 2952 2950 2948 2946 2945 2943 2941 2939 2937 2936 2934 2932 2931 2929 2928 2926 2925 2924 2922 2921 2920 2918 2916 2915 2913 2912 2910 2909 2907 2906 2904 2903
3002 3001 3001 3000 3000 2999 2999 2998 2998 2997 2996 2996 2995 2994 2993 2992 2991 2991 2990 2989 2988 2987 2986 2985 2985 2984 2983 2981 2980 2978 2976 2974 2971 2970 2968 2968 2969 2969 2968 2966 2965 2964 2963 2963 2962 2961 2960 2960 2959 2958 2956 2954 2953 2951 2949 2947 2946 2944 2942 2940 2938 2936 2935 2933 2931 2930 2928 2926 2925 2923 2922 2920 2919 2917 2916 2914 2912 2911 2909 2907 2906 2904 2903 2901 2900 2898
2999 2999 2998 2997 2997 2996 2996 2996 2995 2994 2994 2993 2992 2991 2991 2990 2989 2988 2988 2986 2986 2984 2983 2983 2982 2981 2981 2979 2978 2976 2974 2972 2969 2967 2966 2966 2966 2966 2965 2963 2961 2961 2960 2960 2959 2958 2958 2957 2956 2955 2954 2952 2950 2948 2946 2945 2943 2941 2939 2937 2935 2934 2932 2930 2928 2926 2925 2923 2922 2920 2918 2917 2915 2913 2912 2910 2908 2907 2905 2903 2901 2900 2898 2896 2895 2893
2996 2996 2995 2995 2994 2994 2993 2993 2992 2992 2991 2990 2990 2989 2988 2987 2987 2986 2985 2984 2983 2982 2981 2980 2980 2979 2978 2977 2975 2974 2972 2969 2967 2965 2963 2963 2963 2963 2962 2960 2959 2957 2956 2956 2956 2956 2955 2954 2954 2952 2951 2949 2947 2946 2944 2942 2940 2938 2936 2934 2932 2930 2929 2927 2925 2923 2922 2920 2918 2916 2915 2913 2911 2910 2908 2906 2905 2903 2901 2899 2897 2895 2893 2892 2890 2888
2993 2993 2992 2992 2991 2991 2991 2990 2990 2989 2989 2988 2987 2986 2986 2985 2984 2983 2983 2981 2981 2979 2978 2978 2977 2976 2975 2974 2973 2971 2969 2967 2964 2962 2961 2961 2961 2960 2959 2957 2956 2954 2953 2952 2952 2952 2952 2951 2950 2949 2948 2946 2944 2942 2941 2939 2937 2935 2933 2931 2929 2927 2925 2924 2922 2920 2918 2917 2915 2913 2911 2910 2908 2906 2904 2902 2901 2899 2897 2895 2893 2891 2889 2887 2885 2884
2991 2991 2990 2990 2989 2989 2988 2988 2987 2987 2986 2986 2985 2984 2983 2982 2982 2981 2980 2979 2978 2977 2976 2975 2974 2973 2972 2971 2970 2969 2967 2964 2961 2959 2959 2958 2958 2957 2956 2954 2952 2951 2949 2948 2948 2948 2949 2948 2947 2946 2944 2943 2941 2939 2937 2936 2934 2932 2930 2928 2926 2924 2922 2921 2919 2917 2916 2914 2912 2910 2908 2906 2905 2903 2901 2899 2897 2895 2893 2891 2888 2886 2884 2882 2881 2879
2988 2988 2987 2987 2986 2986 2986 2985 2985 2984 2984 2983 2982 2981 2981 2980 2979 2978 2977 2976 2976 2975 2974 2973 2972 2971 2969 2968 2967 2966 2965 2962 2958 2956 2956 2956 2955 2954 2953 2952 2950 2948 2946 2944 2943 2943 2944 2945 2944 2942 2940 2939 2937 2936 2934 2932 2930 2928 2926 2925 2923 2921 2920 2918 2916 2914 2913 2911 2909 2907 2906 2904 2901 2900 2897 2895 2893 2891 2889 2886 2884 2881 2879 2877 2876 2874
2986 2985 2985 2984 2984 2983 2983 2983 2982 2982 2981 2981 2980 2979 2978 2977 2976 2976 2975 2974 2973 2972 2971 2970 2969 2968 2966 2965 2965 2964 2962 2960 2956 2954 2953 2953 2952 2951 2951 2949 2948 2946 2944 2941 2939 2937 2937 2939 2939 2938 2936 2935 2933 2932 2930 2928 2926 2925 2923 2921 2920 2918 2916 2915 2913 2911 2910 2908 2906 2904 2902 2900 2898 2896 2894 2891 2889 2887 2885 2882 2880 2877 2875 2872 2871 2870
2983 2983 2982 2982 2981 2981 2981 2980 2980 2979 2979 2978 2977 2976 2976 2975 2974 2973 2972 2972 2971 2970 2969 2968 2967 2966 2964 2963 2962 2961 2960 2957 2954 2952 2951 2950 2950 2949 2948 2947 2946 2944 2942 2939 2937 2935 2932 2932 2933 2933 2932 2931 2929 2928 2926 2925 2923 2921 2919 2917 2916 2914 2913 2911 2909 2907 2906 2904 2902 2901 2898 2896 2894 2892 2890 2888 2885 2883 2881 2878 2876 2873 2870 2868 2866 2865
2981 2980 2980 2979 2979 2979 2978 2978 2977 2977 2976 2976 2975 2974 2973 2972 2972 2971 2970 2969 2968 2967 2966 2965 2964 2963 2962 2961 2960 2958 2957 2954 2952 2950 2949 2948 2947 2946 2946 2945 2943 2941 2940 2937 2935 2933 2930 2928 2927 2927 2927 2926 2925 2924 2922 2921 2919 2917 2915 2913 2911 2910 2908 2907 2905 2903 2901 2900 2898 2896 2894 2892 2890 2888 2886 2883 2881 2879 2876 2874 2871 2869 2866 2864 2862 2861
2978 2978 2977 2977 2976 2976 2976 2976 2975 2975 2974 2973 2973 2972 2971 2970 2969 2969 2968 2966 2966 2965 2964 2963 2962 2961 2960 2959 2957 2956 2955 2952 2950 2947 2946 2946 2945 2944 2943 2942 2941 2939 2937 2935 2933 2931 2928 2926 2924 2923 2921 2921 2921 2920 2918 2916 2915 2913 2911 2909 2907 2906 2904 2902 2901 2899 2897 2896 2894 2892 2890 2888 2886 2884 2881 2879 2877 2875 2872 2870 2868 2865 2863 2860 2858 2856
2976 2976 2975 2975 2974 2974 2974 2973 2973 2972 2972 2971 2970 2970 2969 2968 2967 2966 2965 2964 2963 2962 2961 2961 2960 2958 2957 2956 2955 2954 2952 2950 2948 2946 2944 2943 2942 2941 2940 2939 2938 2936 2934 2932 2930 2928 2926 2924 2922 2920 2918 2917 2916 2916 2915 2913 2911 2909 2907 2906 2903 2901 2900 2898 2896 2895 2893 2891 2889 2887 2885 2883 2881 2879 2876 2875 2872 2870 2868 2866 2864 2862 2859 2857 2855 2853
2974 2973 2973 2972 2972 2972 2971 2971 2971 2970 2969 2969 2968 2967 2966 2966 2965 2964 2963 2962 2961 2960 2959 2958 2957 2956 2955 2953 2952 2951 2950 2949 2946 2944 2942 2941 2940 2938 2937 2936 2935 2933 2931 2929 2927 2925 2923 2921 2920 2918 2916 2914 2912 2912 2911 2910 2908 2906 2904 2902 2900 2898 2896 2895 2893 2891 2888 2886 2885 2883 2881 2878 2876 2874 2872 2870 2868 2866 2864 2862 2860 2858 2856 2854 2852 2850
2971 2971 2971 2970 2970 2970 2969 2969 2968 2968 2967 2966 2966 2965 2964 2964 2963 2962 2961 2960 2959 2958 2957 2956 2955 2953 2952 2951 2950 2949 2948 2946 2945 2943 2941 2939 2937 2936 2935 2933 2932 2931 2928 2926 2924 2922 2920 2918 2916 2915 2914 2911 2909 2908 2907 2906 2905 2903 2901 2899 2897 2895 2893 2891 2889 2887 2884 2882 2880 2878 2876 2874 2871 2869 2867 2866 2863 2861 2860 2858 2856 2855 2853 2851 2849 2847
2969 2969 2968 2968 2968 2967 2967 2966 2966 2966 2965 2964 2963 2963 2962 2961 2961 2960 2959 2958 2957 2956 2955 2954 2953 2951 2950 2948 2947 2946 2945 2944 2942 2941 2939 2937 2935 2934 2932 2931 2929 2928 2926 2924 2922 2920 2918 2915 2913 2911 2910 2909 2907 2906 2904 2902 2901 2899 2897 2896 2894 2891 2889 2887 2885 2883 2881 2878 2876 2874 2872 2870 2868 2865 2863 2861 2859 2857 2856 2854 2852 2851 2849 2847 2846 2844
2967 2966 2966 2966 2966 2965 2965 2964 2964 2963 2962 2962 2961 2961 2960 2959 2958 2958 2957 2956 2955 2954 2953 2951 2951 2949 2948 2946 2945 2944 2942 2941 2940 2939 2937 2935 2933 2931 2930 2928 2927 2926 2924 2922 2920 2918 2916 2913 2911 2909 2907 2905 2904 2903 2902 2900 2898 2895 2893 2891 2890 2888 2886 2884 2881 2879 2877 2875 2873 2871 2868 2866 2864 2861 2859 2857 2855 2853 2852 2850 2849 2847 2846 2843 2841 2840
2965 2965 2964 2964 2963 2963 2962 2962 2961 2961 2960 2960 2959 2958 2958 2957 2956 2956 2955 2954 2952 2951 2950 2949 2948 2947 2946 2945 2943 2941 2940 2939 2938 2936 2935 2933 2931 2930 2928 2927 2925 2924 2922 2921 2919 2916 2914 2912 2909 2907 2906 2903 2901 2899 2898 2897 2895 2892 2890 2887 2886 2884 2883 2881 2878 2876 2874 2872 2869 2867 2865 2862 2860 2858 2856 2853 2851 2850 2848 2846 2845 2843 2842 2840 2837 2835
2963 2962 2962 2961 2961 2961 2960 2960 2959 2959 2958 2957 2957 2956 2956 2955 2954 2953 2952 2951 2950 2949 2948 2947 2946 2945 2944 2943 2941 2940 2938 2937 2936 2935 2933 2931 2930 2928 2926 2925 2923 2922 2920 2918 2916 2915 2913 2910 2908 2906 2904 2901 2899 2897 2896 2894 2892 2890 2887 2884 2882 2880 2879 2878 2876 2873 2871 2868 2866 2864 2861 2859 2856 2855 2852 2850 2848 2846 2845 2843 2841 2839 2837 2836 2833 2831
2961 2960 2960 2959 2959 2958 2958 2957 2957 2956 2956 2955 2955 2954 2953 2953 2952 2951 2950 2949 2948 2947 2946 2945 2944 2943 2943 2941 2940 2939 2937 2936 2934 2933 2931 2930 2928 2927 2925 2923 2921 2920 2918 2916 2914 2912 2911 2909 2906 2904 2901 2899 2897 2895 2893 2891 2890 2888 2885 2882 2879 2877 2876 2876 2874 2872 2868 2865 2863 2861 2858 2856 2853 2851 2849 2847 2845 2843 2841 2840 2838 2836 2833 2831 2829 2826
2958 2958 2957 2957 2956 2956 2956 2955 2955 2954 2954 2953 2953 2952 2951 2951 2950 2949 2948 2947 2946 2945 2944 2943 2942 2941 2941 2940 2939 2938 2936 2934 2933 2931 2930 2928 2926 2925 2923 2921 2919 2917 2915 2913 2911 2910 2908 2907 2905 2902 2900 2897 2895 2893 2891 2889 2887 2885 2883 2880 2877 2875 2872 2871 2871 2869 2866 2863 2860 2858 2855 2852 2850 2847 2846 2844 2842 2840 2838 2836 2834 2832 2830 2827 2825 2822
2956 2956 2955 2955 2954 2954 2953 2953 2952 2952 2951 2951 2950 2950 2949 2948 2947 2946 2946 2945 2944 2943 2942 2941 2940 2939 2939 2938 2937 2936 2935 2933 2931 2930 2928 2926 2924 2923 2921 2919 2917 2915 2913 2911 2909 2907 2906 2904 2902 2901 2898 2896 2893 2891 2889 2887 2885 2883 2881 2878 2876 2873 2871 2868 2866 2865 2862 2860 2858 2855 2852 2849 2846 2844 2842 2841 2839 2837 2835 2833 2831 2828 2826 2824 2821 2819
2954 2954 2953 2953 2952 2952 2951 2951 2950 2950 2949 2949 2948 2947 2946 2946 2945 2944 2943 2942 2941 2941 2940 2939 2938 2937 2936 2936 2935 2934 2933 2931 2930 2928 2926 2924 2922 2921 2919 2917 2915 2913 2911 2909 2907 2905 2903 2901 2900 2898 2897 2895 2892 2890 2887 2885 2883 2881 2879 2876 2874 2871 2869 2866 2864 2861 2858 2856 2854 2852 2849 2846 2843 2841 2839 2837 2836 2834 2832 2829 2827 2824 2822 2820 2818 2816
2952 2951 2951 2951 2950 2950 2949 2949 2948 2948 2947 2946 2946 2945 2944 2943 2942 2942 2941 2940 2939 2938 2937 2936 2936 2935 2934 2933 2932 2931 2930 2929 2928 2927 2925 2923 2921 2919 2917 2915 2913 2911 2910 2908 2906 2904 2902 2900 2898 2896 2894 2893 2891 2889 2887 2884 2881 2878 2876 2874 2871 2869 2866 2864 2861 2858 2856 2853 2851 2848 2846 2843 2841 2838 2836 2833 2832 2830 2828 2826 2823 2821 2818 2816 2814 2812
2950 2950 2949 2949 2948 2948 2947 2946 2946 2946 2945 2944 2943 2943 2942 2941 2940 2939 2938 2938 2937 2936 2935 2934 2933 2933 2931 2931 2930 2929 2928 2927 2926 2925 2923 2921 2920 2918 2916 2914 2912 2910 2908 2906 2904 2902 2901 2899 2897 2895 2893 2891 2889 2887 2886 2883 2880 2876 2873 2871 2868 2866 2863 2861 2859 2856 2853 2850 2848 2845 2843 2840 2837 2835 2832 2830 2828 2826 2825 2822 2820 2817 2815 2812 2810 2807
2948 2948 2947 2947 2946 2946 2945 2945 2944 2943 2943 2942 2941 2941 2940 2939 2938 2937 2936 2936 2935 2934 2933 2932 2931 2930 2929 2928 2927 2926 2925 2924 2923 2922 2920 2919 2917 2916 2914 2912 2911 2909 2907 2905 2903 2901 2900 2898 2896 2895 2892 2890 2887 2885 2883 2881 2878 2875 2871 2868 2865 2862 2860 2858 2856 2853 2851 2848 2845 2843 2840 2837 2834 2831 2828 2826 2824 2822 2821 2818 2816 2814 2811 2808 2805 2802
2946 2946 2945 2945 2944 2944 2943 2942 2942 2941 2941 2940 2939 2938 2937 2936 2936 2935 2934 2933 2932 2932 2931 2930 2929 2928 2927 2926 2925 2924 2922 2921 2920 2919 2917 2916 2915 2913 2912 2910 2908 2907 2905 2903 2902 2900 2898 2897 2895 2894 2891 2889 2886 2883 2880 2878 2876 2872 2869 2866 2862 2860 2857 2855 2853 2851 2848 2845 2843 2841 2838 2836 2832 2829 2826 2822 2819 2817 2816 2814 2812 2810 2808 2805 2801 2798
2944 2944 2943 2943 2942 2941 2941 2940 2940 2939 2938 2938 2937 2936 2936 2935 2934 2933 2932 2931 2931 2930 2929 2928 2927 2926 2925 2924 2923 2921 2920 2919 2918 2916 2915 2914 2912 2910 2909 2907 2906 2904 2902 2901 2900 2898 2896 2894 2893 2892 2890 2887 2884 2881 2877 2875 2872 2870 2866 2863 2861 2857 2854 2852 2850 2848 2846 2843 2841 2838 2836 2833 2830 2827 2824 2820 2816 2813 2811 2809 2807 2806 2804 2801 2797 2794
2942 2942 2941 2941 2940 2940 2939 2938 2938 2937 2936 2936 2935 2934 2934 2933 2932 2931 2930 2929 2929 2928 2927 2926 2925 2924 2923 2922 2921 2920 2918 2917 2916 2914 2913 2911 2910 2908 2906 2904 2903 2901 2899 2898 2896 2895 2893 2891 2890 2889 2889 2886 2883 2879 2876 2872 2869 2866 2864 2861 2858 2856 2852 2850 2847 2845 2843 2841 2838 2836 2833 2831 2827 2824 2821 2817 2812 2808 2806 2804 2803 2801 2800 2797 2794 2790